Dallas Fort Worth International Airport
KDFW : now visible

Airfield :











YOU CAN JOIN US ON...

 
LOGIN :

Register | Disclaimer

   EN    FR    IT 

 









Legend :    VFR   Marginal VFR   IFR   Intensive IFR   Very Intensive IFR
Visi :
Ceiling :
>= 8 km
>= 3000ft
5 to 8 km
1000 to 3000 ft
1500m to 5 km
500 to 1000 ft
800 to 1500m
200 to 500 ft
< 800m
< 200 ft
Symbols :   Thunderstorms  Fog  Heavy snow  Heavy precipitations  Wind > 20 kt






- Airport Elevation : 607 ft
- IATA code : DFW


KDFW - Dallas Fort Worth International

CURRENT METAR :
  • 192253Z 15008KT 10SM FEW250 BKN300 24/06 A2988 RMK AO2 SLP112 T02390056

EXPIRED METARs :
  • 192153Z 16010KT 10SM FEW250 BKN300 25/04 A2988 RMK AO2 SLP115 T02500044
  • 192053Z 18010KT 10SM BKN300 26/04 A2989 RMK AO2 SLP116 T02560039 56020

TAF KDFW
Valid from the 19 at 21:00 until the 21 at 00:00 UTC


192030Z 1921/2024 16008KT P6SM FEW250
FM201100 17010KT P6SM OVC025
FM201400 17012KT P6SM OVC018
FM201900 17015KT P6SM OVC023



MET'MAP, your aeronautical weather chart ! - Copyright ORBIFLY December 2007 - Disclaimer

ORBIFLY MET'MAP TEAM :

Programming & Development : Alexandra Zaïnal
Concept & Development : Baudouin d'Aumeries
Co-Development & Prog : Marc-Olivier Méhu
Technical & hardware support : Manuel Goepfert

Contact : metmap@orbifly.com




SOURCES & CREDITS :

   NOAA       Earth
Advisory